FW7163 Weather Reports


time (UTC)temp
C
wind
direction
speed
KPH
gust
KPH
rain 1hr
cm
rain 24hr
cm
rain mn
cm
humidity
%
barometer
mb
20260906211532 28 180 29.0 43.5 0.00 0.13 0.13 59 1006.6
20260906210033 29 130 30.6 48.3 0.00 0.13 0.13 56 1006.8
20260906204530 29 135 35.4 48.3 0.00 0.13 0.13 57 1007.0
20260906203030 28 142 30.6 48.3 0.00 0.13 0.13 56 1007.3
20260906201529 30 125 29.0 38.6 0.00 0.13 0.13 52 1007.6
20260906200029 30 125 25.7 37.0 0.00 0.13 0.13 54 1007.5
20260906194528 29 159 22.5 32.2 0.00 0.13 0.13 54 1007.3
20260906193027 30 144 19.3 25.7 0.00 0.13 0.13 48 1006.9
20260906191527 31 186 12.9 22.5 0.00 0.13 0.13 42 1006.7
20260906190022 30 85 3.2 11.3 0.00 0.13 0.13 47 1006.6
20260906184519 30 39 4.8 12.9 0.00 0.13 0.13 45 1006.5
20260906183017 28 9 3.2 9.7 0.00 0.13 0.13 50 1006.4
20260906181510 28 132 3.2 11.3 0.00 0.13 0.13 54 1006.3
20260906180006 26 133 6.4 17.7 0.00 0.13 0.13 54 1006.4
20260906174507 25 124 19.3 25.7 0.00 0.13 0.13 63 1006.4
20260906173108 22 130 14.5 22.5 0.00 0.13 0.13 70 1006.8
20260906171559 22 126 19.3 25.7 0.03 0.13 0.13 66 1006.7
20260906170117 21 130 17.7 41.8 0.05 0.13 0.13 72 1006.8
20260906164552 21 113 25.7 45.1 0.10 0.13 0.13 75 1006.9
20260906163049 20 93 29.0 33.8 0.10 0.13 0.13 84 1008.1
20260906161547 20 201 11.3 22.5 0.08 0.10 0.10 85 1011.1
20260906160045 20 208 14.5 30.6 0.08 0.08 0.08 91 1010.8
20260906154545 20 199 25.7 37.0 0.03 0.03 0.03 92 1010.8
20260906153042 20 225 24.1 41.8 0.03 0.03 0.03 91 1010.6
20260906151542 20 171 20.9 43.5 0.03 0.03 0.03 83 1009.4
20260906150040 18 13 22.5 35.4 0.00 0.00 0.00 95 1008.3
20260906144541 18 275 3.2 6.4 0.00 0.00 0.00 95 1010.3
20260906143041 18 277 3.2 8.0 0.00 0.00 0.00 95 1010.4
20260906141538 18 269 3.2 6.4 0.00 0.00 0.00 95 1010.4
20260906140038 18 269 4.8 9.7 0.00 0.00 0.00 95 1010.2
20260906134540 18 161 3.2 12.9 0.00 0.00 0.00 95 1009.8
20260906133031 18 148 8.0 16.1 0.00 0.00 0.00 95 1009.3
20260906131531 18 151 6.4 11.3 0.00 0.00 0.00 95 1009.4
20260906130030 18 66 4.8 8.0 0.00 0.00 0.00 96 1009.2
20260906124539 17 59 8.0 14.5 0.00 0.00 0.00 95 1008.7
20260906123058 17 72 8.0 12.9 0.00 0.00 0.00 94 1008.7
20260906121526 17 125 6.4 11.3 0.00 0.00 0.00 95 1008.7
20260906120025 17 125 6.4 9.7 0.00 0.00 0.00 94 1008.8
20260906114524 17 126 0.0 4.8 0.00 0.00 0.00 94 1008.7
20260906113023 17 126 4.8 8.0 0.00 0.00 0.00 93 1008.7
20260906111528 17 101 4.8 12.9 0.00 0.00 0.00 94 1008.7
20260906110019 17 94 11.3 17.7 0.00 0.00 0.00 94 1008.4
20260906104518 18 99 11.3 16.1 0.00 0.00 0.00 93 1008.4
20260906103017 18 98 11.3 17.7 0.00 0.00 0.00 93 1008.3
20260906101514 18 105 12.9 20.9 0.00 0.00 0.00 94 1008.2
20260906100012 18 118 11.3 19.3 0.00 0.00 0.00 93 1008.1
20260906094509 18 117 12.9 17.7 0.00 0.00 0.00 93 1008.3
20260906093007 18 121 11.3 16.1 0.00 0.00 0.00 93 1008.2
20260906091505 18 114 9.7 16.1 0.00 0.00 0.00 93 1008.3
20260906090006 18 111 11.3 17.7 0.00 0.00 0.00 93 1008.3
20260906084605 18 98 14.5 20.9 0.00 0.00 0.00 93 1008.4
20260906083057 18 105 12.9 17.7 0.00 0.00 0.00 92 1008.5
20260906081557 18 103 11.3 14.5 0.00 0.00 0.00 92 1008.5
20260906080053 18 96 6.4 11.3 0.00 0.00 0.00 92 1008.6
20260906074552 19 99 6.4 11.3 0.00 0.00 0.00 91 1008.7
20260906073049 19 97 8.0 12.9 0.00 0.00 0.00 91 1008.9
20260906071546 19 81 8.0 11.3 0.00 0.00 0.00 90 1008.8
20260906070043 20 76 8.0 14.5 0.00 0.00 0.00 89 1008.8
20260906064540 20 65 8.0 14.5 0.00 0.00 0.00 88 1008.9
20260906063037 20 77 9.7 17.7 0.00 0.00 0.00 87 1008.7
20260906061536 21 111 11.3 19.3 0.00 0.00 0.00 87 1008.7
20260906060035 21 112 16.1 22.5 0.00 0.00 0.00 87 1008.7
20260906054540 21 111 17.7 24.1 0.00 0.00 0.00 87 1008.7
20260906053031 21 120 17.7 25.7 0.00 0.00 0.00 87 1008.6
20260906051529 21 108 19.3 27.4 0.00 0.00 0.00 87 1008.4
20260906050026 21 122 19.3 27.4 0.00 0.00 0.00 86 1008.6
20260906044523 21 108 19.3 25.7 0.00 0.00 0.00 86 1008.2
20260906043029 21 118 20.9 29.0 0.00 0.00 0.00 86 1008.2
20260906041521 21 98 19.3 29.0 0.00 0.00 0.00 86 1008.0
20260906040020 21 118 17.7 24.1 0.00 0.00 0.00 86 1008.1
20260906034519 21 98 17.7 25.7 0.00 0.00 0.00 86 1008.1
20260906033023 21 94 16.1 22.5 0.00 0.00 0.00 86 1008.0
20260906031517 22 75 16.1 22.5 0.00 0.00 0.00 85 1007.8
20260906030020 22 81 14.5 25.7 0.00 0.00 0.00 84 1007.8
20260906024514 22 80 17.7 22.5 0.00 0.00 0.00 83 1007.6
20260906023013 22 73 16.1 25.7 0.00 0.00 0.00 83 1007.5
20260906021512 22 61 16.1 22.5 0.00 0.00 0.00 82 1007.5
20260906020011 23 68 16.1 27.4 0.00 0.00 0.00 80 1007.4
20260906014508 23 73 16.1 25.7 0.00 0.00 0.00 79 1007.5
20260906013007 23 84 19.3 35.4 0.00 0.00 0.00 77 1007.3
20260906011506 25 81 19.3 30.6 0.00 0.00 0.00 75 1007.5
20260906010006 25 63 22.5 30.6 0.00 0.00 0.00 72 1007.1
20260906004504 26 83 25.7 37.0 0.00 0.00 0.00 69 1006.9
20260906003004 27 81 22.5 37.0 0.00 0.00 0.00 67 1006.7
20260906001510 27 96 27.4 40.2 0.00 0.00 0.00 65 1006.6
20260906000007 28 82 20.9 35.4 0.00 0.00 0.00 64 1006.4
20260905234503 28 92 22.5 41.8 0.00 0.00 0.00 62 1006.3
20260905233202 29 95 20.9 35.4 0.00 0.00 0.00 61 1006.0
20260905231600 29 84 24.1 35.4 0.00 0.00 0.00 60 1005.7
20260905230059 30 95 24.1 32.2 0.00 0.00 0.00 57 1005.5
20260905224558 30 94 24.1 37.0 0.00 0.00 0.00 57 1005.6
20260905223057 30 97 22.5 33.8 0.00 0.00 0.00 57 1005.7
20260905221557 30 81 24.1 33.8 0.00 0.00 0.00 57 1005.7
20260905220059 31 104 22.5 32.2 0.00 0.00 0.00 55 1005.8
20260905214655 31 72 20.9 32.2 0.00 0.00 0.00 54 1005.7
20260905213054 31 80 19.3 33.8 0.00 0.00 0.00 53 1005.6